Dewpoint
53 53 53 52 53 56 58 57 57 57 57 57 58 58 58 58 57 46 38 37 41 45 45 40 41 41 40 43 45 46 45 41 39 36 34 35 36 31 29 31 32 38 48 48 55
53 52 54 53 53 56 57 57 57 57 57 57 57 58 57 58 51 42 39 42 44 50 36 37 39 40 39 43 46 43 42 41 41 39 36 36 36 28 25 25 32 39 46 54 56
51 52 54 53 55 57 57 57 57 57 57 57 57 57 57 56 43 27 47 58 48 46 35 38 38 38 38 40 44 43 40 42 41 39 36 34 35 29 27 28 32 37 41 50 54
52 52 53 53 55 56 57 57 57 57 56 57 57 57 57 51 28 36 47 43 58 42 34 39 37 39 38 38 43 44 42 41 38 37 34 32 31 29 29 35 32 34 41 48 50
51 53 52 53 54 56 56 56 56 56 56 56 56 56 52 39 39 36 40 39 53 48 35 38 39 41 40 39 42 44 43 40 36 35 32 31 29 30 30 34 32 35 42 44 47
51 52 52 53 55 55 55 55 56 56 55 56 56 56 48 40 40 35 29 32 47 43 39 40 39 44 42 41 40 37 41 38 33 32 31 31 32 32 33 33 32 32 38 43 45
50 51 52 53 54 53 54 54 54 55 55 55 55 53 46 42 40 39 38 35 34 45 40 39 39 44 44 40 38 38 36 36 36 34 32 32 32 31 33 33 31 33 36 40 42
50 51 52 52 53 53 52 53 54 54 54 55 56 51 43 42 40 37 35 34 34 35 41 40 40 43 44 37 36 38 37 35 35 34 34 30 32 32 32 31 29 32 34 38 41
51 51 52 50 50 50 51 52 53 54 55 55 51 47 40 39 36 36 31 30 32 28 34 38 40 42 45 38 36 37 36 38 35 40 35 33 31 30 28 27 28 30 31 38 39
50 51 52 52 51 51 52 52 52 53 50 50 45 41 39 33 33 29 28 32 28 30 35 37 39 40 41 39 37 35 34 37 40 45 44 42 39 37 40 26 26 27 28 33 37
51 51 52 52 53 52 51 47 40 46 43 37 36 35 33 33 33 29 29 30 28 33 34 36 38 38 36 38 39 36 36 36 35 35 40 42 35 37 37 28 28 29 28 27 34
52 51 52 52 53 52 50 45 36 40 38 39 38 36 32 31 28 25 23 24 30 31 34 34 37 37 37 35 35 34 35 38 39 26 29 33 38 39 38 29 28 27 27 28 28
51 51 51 53 54 51 47 43 43 45 40 39 36 35 33 31 29 24 27 27 28 30 33 35 34 36 35 36 35 35 33 33 32 28 34 35 29 31 25 25 25 25 28 30 29
51 52 52 53 51 46 44 44 44 44 39 29 30 30 30 33 27 27 28 29 26 29 33 32 35 33 39 37 35 32 32 33 31 28 29 25 18 18 24 24 22 26 29 30 31
51 51 53 52 49 47 46 47 44 45 24 27 28 31 31 33 30 24 32 32 27 26 33 33 33 35 33 36 35 31 29 32 32 26 21 22 19 17 21 22 23 27 29 30 31
52 52 53 50 50 48 49 45 43 40 22 28 27 27 28 30 27 27 27 30 32 26 31 27 28 33 33 28 27 28 25 24 22 21 15 16 16 16 19 19 24 27 28 30 30
53 54 52 48 44 45 44 42 37 33 31 28 26 28 29 29 26 22 24 24 25 24 25 25 26 28 30 28 28 26 23 21 22 18 16 15 14 19 19 24 26 27 28 29 30
54 55 52 50 45 45 43 37 32 27 28 31 27 25 29 30 26 24 21 24 25 26 27 22 21 26 27 25 24 25 22 17 13 15 17 17 12 18 21 26 27 28 28 29 30
54 49 49 44 48 46 41 33 24 26 27 30 35 30 35 33 27 24 24 26 24 21 21 24 21 22 23 24 24 23 19 22 16 11 9 12 16 17 20 23 25 26 27 28 28
48 46 40 38 42 42 35 27 25 26 29 34 34 34 34 33 26 26 23 27 26 21 21 20 19 21 22 23 23 25 22 18 16 9 10 10 14 15 17 20 23 24 24 25 25
46 37 38 41 41 38 29 24 22 26 27 26 27 32 33 32 28 27 24 26 23 23 24 22 16 19 21 22 21 20 20 18 18 17 10 8 12 17 17 18 19 21 23 24 24
39 31 35 38 34 31 26 24 24 23 26 26 26 27 28 25 28 29 23 27 25 24 21 21 21 15 16 15 17 20 20 18 15 13 13 10 12 16 17 18 19 22 24 25 25
36 30 33 34 28 27 27 24 23 22 24 22 23 25 25 25 25 26 26 27 26 25 26 24 16 11 13 14 14 15 17 19 16 18 16 12 13 16 17 17 19 22 24 25 25
36 28 29 30 29 25 25 25 23 24 23 22 21 21 22 23 25 26 25 26 28 29 26 25 19 14 14 18 14 9 11 14 14 12 11 13 15 15 17 18 19 21 23 24 25
34 26 28 25 25 23 22 24 22 21 22 19 18 19 19 18 20 23 25 25 27 28 22 21 16 8 9 10 10 11 12 13 12 12 11 13 13 16 17 18 19 22 23 22 24
31 31 34 32 25 20 20 22 22 21 20 18 17 17 17 17 19 21 23 21 19 23 18 18 17 11 8 13 14 14 13 13 13 13 13 13 14 20 19 18 18 21 22 22 23
36 36 32 32 30 21 18 18 21 21 19 18 18 16 17 20 22 23 22 21 20 18 16 15 16 18 19 20 19 18 19 19 17 17 17 15 20 20 19 19 20 21 23 24 25
Wind_Speed
11 13 12 14 14 14 11 10 11 12 13 15 17 18 20 21 24 22 22 19 12 8 10 13 13 10 8 4 10 6 5 13 21 10 10 15 9 2 4 8 2 3 11 17 23
12 12 14 13 14 14 11 9 10 11 13 14 16 18 21 23 25 26 24 18 18 6 11 12 12 12 8 7 6 8 9 14 12 9 2 15 15 11 5 7 6 6 9 16 18
12 12 14 12 13 11 8 8 10 11 13 14 16 19 21 22 18 3 9 11 28 13 16 18 16 6 9 13 11 9 11 17 5 8 5 13 11 13 7 11 9 19 17 13 14
12 11 13 11 11 9 8 8 11 13 14 15 16 18 22 12 7 7 17 12 4 21 16 18 15 14 10 10 10 9 18 17 5 2 3 12 10 9 9 5 8 11 21 18 16
12 13 12 12 10 8 9 11 12 14 15 16 17 17 13 10 19 33 28 12 5 16 22 20 18 15 12 5 11 14 18 14 6 1 4 9 8 3 12 9 6 7 16 16 16
11 13 12 12 8 9 11 12 13 14 15 15 17 17 13 26 17 21 20 11 9 18 21 20 16 17 10 12 9 6 4 8 4 1 4 4 5 4 9 9 6 7 9 13 13
11 12 12 11 8 10 13 15 16 17 17 17 16 15 18 29 20 28 26 11 15 17 21 20 19 16 13 6 7 4 1 4 3 3 6 12 7 12 4 8 8 8 10 11 12
11 12 13 12 10 11 15 17 18 19 19 18 16 13 13 21 20 24 23 20 22 15 16 17 16 14 12 9 5 5 3 5 5 4 2 5 5 14 8 6 10 11 13 11 13
9 10 11 10 11 15 18 20 24 22 19 17 11 12 16 18 18 22 21 19 15 15 17 14 7 11 9 10 9 10 11 13 9 6 5 7 6 5 4 6 8 9 10 17 12
9 10 11 10 11 14 18 26 22 13 14 12 13 13 13 10 15 15 21 20 15 16 15 12 10 16 15 17 17 15 19 14 18 10 6 4 8 22 24 13 9 8 10 10 16
9 10 9 10 11 13 16 10 3 3 8 10 9 12 26 21 23 9 14 17 15 16 15 18 17 21 20 23 22 20 9 9 9 8 6 12 7 15 16 16 11 8 10 10 17
9 9 10 10 13 12 10 6 8 7 15 18 25 26 25 19 11 12 14 12 16 18 20 13 20 19 22 22 24 18 12 15 14 8 5 4 9 18 21 3 4 6 8 9 9
10 9 11 11 14 10 6 15 11 11 7 12 11 9 8 5 9 12 6 15 11 18 20 18 15 23 20 18 19 14 9 7 11 10 6 4 7 18 5 8 4 1 3 8 12
11 10 11 11 7 9 7 8 12 8 5 5 4 4 3 6 2 7 14 6 9 19 20 18 5 16 7 11 9 12 15 4 9 7 9 12 5 6 17 14 8 11 10 9 8
14 11 11 7 13 6 8 14 13 3 5 5 4 0 3 3 2 4 2 7 10 16 12 6 8 3 9 7 11 2 6 6 9 12 13 13 5 2 17 15 12 11 7 5 9
15 15 10 9 7 11 11 12 8 4 6 3 3 2 5 6 2 3 4 8 11 13 4 2 6 6 3 8 6 13 7 5 2 6 10 20 16 1 7 8 11 11 7 6 3
14 15 10 14 5 8 11 8 4 7 11 13 8 2 7 1 3 6 8 9 5 4 7 8 5 3 10 7 4 8 12 6 4 7 6 6 9 9 11 8 9 11 9 8 6
13 13 15 16 14 16 13 5 2 8 3 4 10 9 7 6 2 6 14 11 10 7 10 10 6 8 5 1 5 12 7 5 3 4 5 3 5 7 12 11 11 13 11 12 11
11 7 9 12 20 8 6 7 6 3 6 14 16 11 11 11 9 4 12 9 4 7 3 10 5 5 5 3 5 6 5 2 3 8 4 7 7 6 13 13 14 14 12 12 13
6 9 19 11 8 7 6 11 6 2 3 11 11 9 4 17 10 3 6 3 3 3 4 5 7 1 2 1 1 3 2 2 3 3 6 11 9 11 17 15 14 14 12 12 13
3 7 4 10 9 7 8 13 4 3 3 4 7 14 12 2 3 4 4 2 4 5 4 9 2 4 4 6 4 4 3 3 1 2 2 5 5 7 17 17 16 16 13 12 11
2 6 6 8 6 8 11 2 2 4 4 5 5 8 3 5 5 5 1 3 5 6 3 2 4 5 4 4 4 4 3 11 4 3 4 1 2 7 15 14 16 15 11 11 10
3 13 8 8 8 15 16 4 3 2 4 2 3 2 4 3 5 1 3 1 3 4 2 7 3 6 2 0 1 3 4 4 5 3 5 3 3 7 9 9 9 14 12 11 10
3 5 6 10 14 22 18 16 13 2 3 4 3 2 4 5 3 2 1 1 3 4 4 4 4 4 4 5 2 5 7 7 6 4 5 3 7 9 9 9 9 9 12 12 9
5 7 9 9 13 18 18 15 17 11 4 3 4 5 6 5 2 4 4 1 1 1 2 4 3 5 7 3 4 4 6 9 12 11 7 6 5 13 16 17 16 15 11 10 11
3 4 8 18 21 19 17 16 18 18 3 4 5 4 3 2 6 6 6 5 2 2 1 1 2 2 4 3 1 4 7 8 10 10 11 11 9 9 10 10 7 10 9 6 3
5 13 11 11 18 17 15 18 8 9 2 2 6 4 4 2 4 3 7 6 6 4 5 3 2 2 2 1 4 9 5 13 9 6 2 8 4 6 5 5 6 6 8 4 9
Wind_Direction
340 337 329 335 330 325 321 323 326 331 332 331 330 329 324 319 313 302 270 243 263 285 320 281 272 258 214 242 236 281 258 256 261 244 136 139 142 124 40 123 139 113 51 144 142
330 323 328 328 329 317 313 317 321 324 325 326 327 326 323 322 312 289 255 252 264 209 268 266 264 205 218 201 210 209 236 251 292 71 256 161 162 158 160 182 158 128 81 116 146
315 318 325 325 332 323 313 313 316 321 323 326 328 325 321 320 305 251 49 2 226 219 243 267 284 291 254 246 228 213 242 260 338 317 140 164 183 157 199 179 196 183 163 161 175
328 321 328 323 332 335 332 325 324 323 325 328 326 325 318 305 256 122 354 343 281 220 235 244 240 230 216 233 205 280 268 261 336 322 258 167 181 172 205 107 46 72 157 164 182
323 327 318 321 324 333 331 326 324 323 323 323 322 324 326 269 247 287 297 327 250 198 218 225 221 215 224 228 224 230 264 296 54 347 289 159 191 162 209 133 94 97 140 168 185
323 326 321 326 312 318 319 317 315 314 314 314 315 322 289 276 262 266 265 301 245 196 212 228 231 219 217 228 237 360 191 262 27 266 8 163 121 36 221 144 148 159 166 174 194
324 323 322 327 310 311 314 313 311 310 307 305 307 305 283 258 280 296 308 289 292 205 223 224 237 246 210 253 116 10 217 76 216 201 56 346 186 235 146 134 178 180 179 184 190
322 325 328 320 309 307 311 306 299 294 294 291 297 293 268 266 260 259 260 267 270 250 242 254 229 245 192 116 118 169 256 171 107 80 58 60 279 49 102 177 200 188 182 182 185
322 326 322 322 323 312 306 299 289 285 281 281 277 231 280 277 236 241 253 237 227 224 227 245 200 213 186 189 180 185 202 212 152 115 99 28 334 359 353 263 253 204 214 170 183
322 318 315 320 314 306 303 286 271 283 267 248 248 286 257 335 333 213 210 226 228 202 193 213 201 198 188 199 203 199 212 235 206 176 157 201 279 301 306 242 231 257 243 188 178
321 312 311 314 317 313 321 315 339 201 224 248 206 240 294 316 316 238 205 202 217 192 188 196 202 203 194 204 223 220 198 213 130 126 158 209 247 307 308 230 220 239 283 289 181
308 302 306 313 309 314 307 292 29 330 303 277 252 257 272 280 296 219 172 190 202 192 212 185 209 207 218 210 218 236 212 196 101 168 160 180 242 251 267 279 47 10 331 289 271
302 296 295 309 318 293 239 295 326 336 281 304 233 248 260 257 248 143 208 215 201 203 204 190 206 232 213 217 209 226 243 209 171 160 209 161 283 246 187 131 127 151 23 306 300
295 301 297 316 308 332 298 17 336 320 285 169 197 177 199 247 269 72 191 239 192 209 223 218 4 209 214 176 212 212 210 230 143 159 234 162 268 259 170 163 138 61 31 346 316
295 292 301 293 321 311 2 338 326 235 356 10 93 160 358 313 212 154 91 289 268 213 204 197 179 184 187 191 203 165 102 168 198 205 255 203 245 60 146 158 95 78 43 4 323
299 291 301 257 230 248 303 309 292 288 38 60 358 202 172 243 196 122 179 250 290 269 73 73 58 153 173 68 48 131 142 121 158 242 251 242 211 84 145 93 89 85 67 42 8
300 287 267 299 269 323 306 305 324 353 4 347 353 2 263 222 302 171 186 220 220 131 192 151 96 67 136 94 87 211 163 165 193 192 242 107 154 117 110 95 108 105 86 88 54
311 300 270 241 284 321 310 276 278 328 326 214 354 316 33 334 274 181 195 219 232 298 167 190 157 162 185 359 188 202 233 261 251 182 138 184 222 146 117 121 108 104 108 96 89
314 287 258 253 227 244 282 266 10 355 29 51 10 357 356 309 278 249 194 239 35 28 294 196 103 71 33 20 357 157 213 17 341 297 296 193 98 117 140 140 132 114 107 105 102
311 298 272 237 171 198 267 274 359 33 110 133 161 171 135 274 272 320 184 6 331 33 348 320 113 54 107 277 4 33 358 125 195 236 226 245 159 155 162 151 139 132 125 121 120
289 279 98 126 177 225 254 289 347 104 166 228 289 200 226 243 28 296 26 51 359 323 318 311 205 143 157 211 173 153 201 242 307 272 336 325 82 126 162 156 152 139 142 136 121
282 276 147 186 238 226 256 26 321 315 167 257 259 279 124 145 267 258 46 81 351 324 319 54 309 128 108 53 14 338 264 199 209 186 212 13 143 13 125 146 141 142 130 118 115
250 271 175 204 264 262 274 219 209 266 260 287 278 280 3 264 259 1 73 34 3 352 14 347 272 125 168 118 32 238 222 282 27 60 254 289 170 107 120 136 135 141 147 143 146
305 294 157 205 248 282 292 305 299 161 262 261 276 274 287 255 188 326 152 74 351 13 349 349 318 348 38 65 78 175 198 198 207 208 233 240 160 162 169 171 160 155 153 158 155
195 256 312 283 253 243 251 270 288 288 212 230 240 235 292 286 229 224 91 171 229 30 348 4 319 19 86 40 3 17 167 194 220 238 271 271 17 171 190 189 185 172 171 177 161
252 294 350 312 292 293 297 244 267 282 245 243 231 326 309 290 31 9 163 208 107 147 263 122 359 337 252 142 262 264 247 244 231 246 277 296 305 61 59 101 119 144 163 176 188
239 272 271 287 303 291 268 281 248 303 68 306 323 294 232 97 39 21 50 41 79 153 190 193 250 271 142 160 297 275 261 227 223 223 264 254 123 111 92 129 143 171 138 146 89